Year,Month,Day,Hour,Minute,Value (Times are PST for temperature in C)
2005,03,13,00,00,7.10
2005,03,13,00,01,7.00
2005,03,13,00,02,6.90
2005,03,13,00,03,6.80
2005,03,13,00,04,6.80
2005,03,13,00,05,6.70
2005,03,13,00,06,6.60
2005,03,13,00,07,6.50
2005,03,13,00,08,6.40
2005,03,13,00,09,6.40
2005,03,13,00,10,6.30
2005,03,13,00,11,6.20
2005,03,13,00,12,6.20
2005,03,13,00,13,6.10
2005,03,13,00,14,6.00
2005,03,13,00,15,6.10
2005,03,13,00,16,6.20
2005,03,13,00,17,6.30
2005,03,13,00,18,6.40
2005,03,13,00,19,6.60
2005,03,13,00,20,6.70
2005,03,13,00,21,6.80
2005,03,13,00,22,6.80
2005,03,13,00,23,7.00
2005,03,13,00,24,6.90
2005,03,13,00,25,7.00
2005,03,13,00,26,7.00
2005,03,13,00,27,7.10
2005,03,13,00,28,7.10
2005,03,13,00,29,7.10
2005,03,13,00,30,7.00
2005,03,13,00,31,6.90
2005,03,13,00,32,6.80
2005,03,13,00,33,6.60
2005,03,13,00,34,6.70
2005,03,13,00,35,6.70
2005,03,13,00,36,6.80
2005,03,13,00,37,6.80
2005,03,13,00,38,6.80
2005,03,13,00,39,6.80
2005,03,13,00,40,6.80
2005,03,13,00,41,6.90
2005,03,13,00,42,6.90
2005,03,13,00,43,6.90
2005,03,13,00,44,7.00
2005,03,13,00,45,7.00
2005,03,13,00,46,7.00
2005,03,13,00,47,7.10
2005,03,13,00,48,7.20
2005,03,13,00,49,7.20
2005,03,13,00,50,7.20
2005,03,13,00,51,7.30
2005,03,13,00,52,7.30
2005,03,13,00,53,7.30
2005,03,13,00,54,7.20
2005,03,13,00,55,7.20
2005,03,13,00,56,7.10
2005,03,13,00,57,7.10
2005,03,13,00,58,7.00
2005,03,13,00,59,7.00
2005,03,13,01,00,7.00
2005,03,13,01,01,7.00
2005,03,13,01,02,7.10
2005,03,13,01,03,7.10
2005,03,13,01,04,7.20
2005,03,13,01,05,7.20
2005,03,13,01,06,7.20
2005,03,13,01,07,7.20
2005,03,13,01,08,7.20
2005,03,13,01,09,7.30
2005,03,13,01,10,7.20
2005,03,13,01,11,7.20
2005,03,13,01,12,7.20
2005,03,13,01,13,7.20
2005,03,13,01,14,7.20
2005,03,13,01,15,7.20
2005,03,13,01,16,7.30
2005,03,13,01,17,7.30
2005,03,13,01,18,7.30
2005,03,13,01,19,7.30
2005,03,13,01,20,7.20
2005,03,13,01,21,7.10
2005,03,13,01,22,7.10
2005,03,13,01,23,7.00
2005,03,13,01,24,6.90
2005,03,13,01,25,6.80
2005,03,13,01,26,6.70
2005,03,13,01,27,6.60
2005,03,13,01,28,6.60
2005,03,13,01,29,6.60
2005,03,13,01,30,6.40
2005,03,13,01,31,6.40
2005,03,13,01,32,6.30
2005,03,13,01,33,6.20
2005,03,13,01,34,6.20
2005,03,13,01,35,6.00
2005,03,13,01,36,5.90
2005,03,13,01,37,5.90
2005,03,13,01,38,5.80
2005,03,13,01,39,5.80
2005,03,13,01,40,5.70
2005,03,13,01,41,5.70
2005,03,13,01,42,5.70
2005,03,13,01,43,5.80
2005,03,13,01,44,5.90
2005,03,13,01,45,6.00
2005,03,13,01,46,6.00
2005,03,13,01,47,6.00
2005,03,13,01,48,6.10
2005,03,13,01,49,6.10
2005,03,13,01,50,6.10
2005,03,13,01,51,6.10
2005,03,13,01,52,6.10
2005,03,13,01,53,6.10
2005,03,13,01,54,6.10
2005,03,13,01,55,6.20
2005,03,13,01,56,6.20
2005,03,13,01,57,6.20
2005,03,13,01,58,6.30
2005,03,13,01,59,6.30
2005,03,13,02,00,6.30
2005,03,13,02,01,6.40
2005,03,13,02,02,6.40
2005,03,13,02,03,6.40
2005,03,13,02,04,6.40
2005,03,13,02,05,6.40
2005,03,13,02,06,6.50
2005,03,13,02,07,6.40
2005,03,13,02,08,6.40
2005,03,13,02,09,6.40
2005,03,13,02,10,6.30
2005,03,13,02,11,6.40
2005,03,13,02,12,6.40
2005,03,13,02,13,6.40
2005,03,13,02,14,6.30
2005,03,13,02,15,6.30
2005,03,13,02,16,6.30
2005,03,13,02,17,6.30
2005,03,13,02,18,6.40
2005,03,13,02,19,6.50
2005,03,13,02,20,6.60
2005,03,13,02,21,6.60
2005,03,13,02,22,6.70
2005,03,13,02,23,6.70
2005,03,13,02,24,6.60
2005,03,13,02,25,6.60
2005,03,13,02,26,6.60
2005,03,13,02,27,6.50
2005,03,13,02,28,6.40
2005,03,13,02,29,6.40
2005,03,13,02,30,6.30
2005,03,13,02,31,6.30
2005,03,13,02,32,6.30
2005,03,13,02,33,6.30
2005,03,13,02,34,6.30
2005,03,13,02,35,6.20
2005,03,13,02,36,6.20
2005,03,13,02,37,6.20
2005,03,13,02,38,6.20
2005,03,13,02,39,6.20
2005,03,13,02,40,6.20
2005,03,13,02,41,6.20
2005,03,13,02,42,6.30
2005,03,13,02,43,6.30
2005,03,13,02,44,6.30
2005,03,13,02,45,6.30
2005,03,13,02,46,6.30
2005,03,13,02,47,6.30
2005,03,13,02,48,6.20
2005,03,13,02,49,6.10
2005,03,13,02,50,6.10
2005,03,13,02,51,6.00
2005,03,13,02,52,6.20
2005,03,13,02,53,6.30
2005,03,13,02,54,6.30
2005,03,13,02,55,6.40
2005,03,13,02,56,6.50
2005,03,13,02,57,6.60
2005,03,13,02,58,6.60
2005,03,13,02,59,6.80
2005,03,13,03,00,6.90
2005,03,13,03,01,7.00
2005,03,13,03,02,7.10
2005,03,13,03,03,7.10
2005,03,13,03,04,7.10
2005,03,13,03,05,7.10
2005,03,13,03,06,7.00
2005,03,13,03,07,7.10
2005,03,13,03,08,7.20
2005,03,13,03,09,7.30
2005,03,13,03,10,7.30
2005,03,13,03,11,7.30
2005,03,13,03,12,7.40
2005,03,13,03,13,7.50
2005,03,13,03,14,7.50
2005,03,13,03,15,7.60
2005,03,13,03,16,7.60
2005,03,13,03,17,7.60
2005,03,13,03,18,7.70
2005,03,13,03,19,7.80
2005,03,13,03,20,7.80
2005,03,13,03,21,7.80
2005,03,13,03,22,7.90
2005,03,13,03,23,7.90
2005,03,13,03,24,7.90
2005,03,13,03,25,7.90
2005,03,13,03,26,7.90
2005,03,13,03,27,7.90
2005,03,13,03,28,7.90
2005,03,13,03,29,7.90
2005,03,13,03,30,8.00
2005,03,13,03,31,8.00
2005,03,13,03,32,8.00
2005,03,13,03,33,8.00
2005,03,13,03,34,8.00
2005,03,13,03,35,7.90
2005,03,13,03,36,7.90
2005,03,13,03,37,7.90
2005,03,13,03,38,7.90
2005,03,13,03,39,7.80
2005,03,13,03,40,7.80
2005,03,13,03,41,7.80
2005,03,13,03,42,7.80
2005,03,13,03,43,7.80
2005,03,13,03,44,7.70
2005,03,13,03,45,7.70
2005,03,13,03,46,7.70
2005,03,13,03,47,7.60
2005,03,13,03,48,7.60
2005,03,13,03,49,7.60
2005,03,13,03,50,7.60
2005,03,13,03,51,7.60
2005,03,13,03,52,7.60
2005,03,13,03,53,7.60
2005,03,13,03,54,7.60
2005,03,13,03,55,7.60
2005,03,13,03,56,7.60
2005,03,13,03,57,7.60
2005,03,13,03,58,7.60
2005,03,13,03,59,7.60
2005,03,13,04,00,7.60
2005,03,13,04,01,7.60
2005,03,13,04,02,7.60
2005,03,13,04,03,7.60
2005,03,13,04,04,7.60
2005,03,13,04,05,7.60
2005,03,13,04,06,7.60
2005,03,13,04,07,7.60
2005,03,13,04,08,7.60
2005,03,13,04,09,7.60
2005,03,13,04,10,7.60
2005,03,13,04,11,7.70
2005,03,13,04,12,7.70
2005,03,13,04,13,7.70
2005,03,13,04,14,7.70
2005,03,13,04,15,7.70
2005,03,13,04,16,7.70
2005,03,13,04,17,7.70
2005,03,13,04,18,7.70
2005,03,13,04,19,7.70
2005,03,13,04,20,7.70
2005,03,13,04,21,7.70
2005,03,13,04,22,7.70
2005,03,13,04,23,7.70
2005,03,13,04,24,7.70
2005,03,13,04,25,7.70
2005,03,13,04,26,7.70
2005,03,13,04,27,7.70
2005,03,13,04,28,7.60
2005,03,13,04,29,7.60
2005,03,13,04,30,7.60
2005,03,13,04,31,7.60
2005,03,13,04,32,7.50
2005,03,13,04,33,7.50
2005,03,13,04,34,7.50
2005,03,13,04,35,7.50
2005,03,13,04,36,7.50
2005,03,13,04,37,7.50
2005,03,13,04,38,7.50
2005,03,13,04,39,7.40
2005,03,13,04,40,7.40
2005,03,13,04,41,7.40
2005,03,13,04,42,7.40
2005,03,13,04,43,7.40
2005,03,13,04,44,7.40
2005,03,13,04,45,7.40
2005,03,13,04,46,7.40
2005,03,13,04,47,7.40
2005,03,13,04,48,7.40
2005,03,13,04,49,7.30
2005,03,13,04,50,7.40
2005,03,13,04,51,7.40
2005,03,13,04,52,7.40
2005,03,13,04,53,7.40
2005,03,13,04,54,7.40
2005,03,13,04,55,7.40
2005,03,13,04,56,7.40
2005,03,13,04,57,7.40
2005,03,13,04,58,7.40
2005,03,13,04,59,7.50
2005,03,13,05,00,7.50
2005,03,13,05,01,7.50
2005,03,13,05,02,7.50
2005,03,13,05,03,7.60
2005,03,13,05,04,7.60
2005,03,13,05,05,7.60
2005,03,13,05,06,7.60
2005,03,13,05,07,7.60
2005,03,13,05,08,7.60
2005,03,13,05,09,7.60
2005,03,13,05,10,7.60
2005,03,13,05,11,7.60
2005,03,13,05,12,7.60
2005,03,13,05,13,7.50
2005,03,13,05,14,7.50
2005,03,13,05,15,7.50
2005,03,13,05,16,7.50
2005,03,13,05,17,7.40
2005,03,13,05,18,7.40
2005,03,13,05,19,7.40
2005,03,13,05,20,7.40
2005,03,13,05,21,7.40
2005,03,13,05,22,7.40
2005,03,13,05,23,7.30
2005,03,13,05,24,7.30
2005,03,13,05,25,7.30
2005,03,13,05,26,7.30
2005,03,13,05,27,7.30
2005,03,13,05,28,7.30
2005,03,13,05,29,7.30
2005,03,13,05,30,7.30
2005,03,13,05,31,7.30
2005,03,13,05,32,7.30
2005,03,13,05,33,7.30
2005,03,13,05,34,7.30
2005,03,13,05,35,7.30
2005,03,13,05,36,7.30
2005,03,13,05,37,7.30
2005,03,13,05,38,7.30
2005,03,13,05,39,7.30
2005,03,13,05,40,7.30
2005,03,13,05,41,7.30
2005,03,13,05,42,7.20
2005,03,13,05,43,7.20
2005,03,13,05,44,7.20
2005,03,13,05,45,7.10
2005,03,13,05,46,7.10
2005,03,13,05,47,7.10
2005,03,13,05,48,7.10
2005,03,13,05,49,7.10
2005,03,13,05,50,7.10
2005,03,13,05,51,7.10
2005,03,13,05,52,7.00
2005,03,13,05,53,7.00
2005,03,13,05,54,7.00
2005,03,13,05,55,7.00
2005,03,13,05,56,6.90
2005,03,13,05,57,6.90
2005,03,13,05,58,6.90
2005,03,13,05,59,6.90
2005,03,13,06,00,6.90
2005,03,13,06,01,6.80
2005,03,13,06,02,6.80
2005,03,13,06,03,6.80
2005,03,13,06,04,6.80
2005,03,13,06,05,6.80
2005,03,13,06,06,6.80
2005,03,13,06,07,6.80
2005,03,13,06,08,6.80
2005,03,13,06,09,6.80
2005,03,13,06,10,6.70
2005,03,13,06,11,6.70
2005,03,13,06,12,6.70
2005,03,13,06,13,6.70
2005,03,13,06,14,6.70
2005,03,13,06,15,6.70
2005,03,13,06,16,6.70
2005,03,13,06,17,6.80
2005,03,13,06,18,6.80
2005,03,13,06,19,6.80
2005,03,13,06,20,6.80
2005,03,13,06,21,6.80
2005,03,13,06,22,6.80
2005,03,13,06,23,6.80
2005,03,13,06,24,6.80
2005,03,13,06,25,6.80
2005,03,13,06,26,6.80
2005,03,13,06,27,6.90
2005,03,13,06,28,6.90
2005,03,13,06,29,6.90
2005,03,13,06,30,6.90
2005,03,13,06,31,6.90
2005,03,13,06,32,6.90
2005,03,13,06,33,7.00
2005,03,13,06,34,7.00
2005,03,13,06,35,7.00
2005,03,13,06,36,7.00
2005,03,13,06,37,7.00
2005,03,13,06,38,7.00
2005,03,13,06,39,7.00
2005,03,13,06,40,7.00
2005,03,13,06,41,7.00
2005,03,13,06,42,7.00
2005,03,13,06,43,7.00
2005,03,13,06,44,7.10
2005,03,13,06,45,7.10
2005,03,13,06,46,7.10
2005,03,13,06,47,7.10
2005,03,13,06,48,7.10
2005,03,13,06,49,7.10
2005,03,13,06,50,7.10
2005,03,13,06,51,7.10
2005,03,13,06,52,7.10
2005,03,13,06,53,7.10
2005,03,13,06,54,7.10
2005,03,13,06,55,7.10
2005,03,13,06,56,7.10
2005,03,13,06,57,7.10
2005,03,13,06,58,7.10
2005,03,13,06,59,7.10
2005,03,13,07,00,7.10
2005,03,13,07,01,7.10
2005,03,13,07,02,7.10
2005,03,13,07,03,7.10
2005,03,13,07,04,7.10
2005,03,13,07,05,7.10
2005,03,13,07,06,7.10
2005,03,13,07,07,7.10
2005,03,13,07,08,7.10
2005,03,13,07,09,7.10
2005,03,13,07,10,7.10
2005,03,13,07,11,7.10
2005,03,13,07,12,7.20
2005,03,13,07,13,7.20
2005,03,13,07,14,7.20
2005,03,13,07,15,7.20
2005,03,13,07,16,7.20
2005,03,13,07,17,7.30
2005,03,13,07,18,7.30
2005,03,13,07,19,7.30
2005,03,13,07,20,7.30
2005,03,13,07,21,7.30
2005,03,13,07,22,7.30
2005,03,13,07,23,7.40
2005,03,13,07,24,7.40
2005,03,13,07,25,7.40
2005,03,13,07,26,7.50
2005,03,13,07,27,7.50
2005,03,13,07,28,7.50
2005,03,13,07,29,7.60
2005,03,13,07,30,7.60
2005,03,13,07,31,7.60
2005,03,13,07,32,7.70
2005,03,13,07,33,7.70
2005,03,13,07,34,7.70
2005,03,13,07,35,7.70
2005,03,13,07,36,7.80
2005,03,13,07,37,7.80
2005,03,13,07,38,7.80
2005,03,13,07,39,7.80
2005,03,13,07,40,7.80
2005,03,13,07,41,7.80
2005,03,13,07,42,7.90
2005,03,13,07,43,7.90
2005,03,13,07,44,7.90
2005,03,13,07,45,7.90
2005,03,13,07,46,7.90
2005,03,13,07,47,8.00
2005,03,13,07,48,8.00
2005,03,13,07,49,8.00
2005,03,13,07,50,8.00
2005,03,13,07,51,8.10
2005,03,13,07,52,8.10
2005,03,13,07,53,8.20
2005,03,13,07,54,8.20
2005,03,13,07,55,8.20
2005,03,13,07,56,8.30
2005,03,13,07,57,8.30
2005,03,13,07,58,8.40
2005,03,13,07,59,8.40
2005,03,13,08,00,8.40
2005,03,13,08,01,8.50
2005,03,13,08,02,8.50
2005,03,13,08,03,8.50
2005,03,13,08,04,8.50
2005,03,13,08,05,8.50
2005,03,13,08,06,8.50
2005,03,13,08,07,8.50
2005,03,13,08,08,8.60
2005,03,13,08,09,8.60
2005,03,13,08,10,8.70
2005,03,13,08,11,8.70
2005,03,13,08,12,8.70
2005,03,13,08,13,8.70
2005,03,13,08,14,8.70
2005,03,13,08,15,8.80
2005,03,13,08,16,8.80
2005,03,13,08,17,8.80
2005,03,13,08,18,8.90
2005,03,13,08,19,8.90
2005,03,13,08,20,8.90
2005,03,13,08,21,9.00
2005,03,13,08,22,9.00
2005,03,13,08,23,9.00
2005,03,13,08,24,9.00
2005,03,13,08,25,9.00
2005,03,13,08,26,9.10
2005,03,13,08,27,9.10
2005,03,13,08,28,9.20
2005,03,13,08,29,9.20
2005,03,13,08,30,9.20
2005,03,13,08,31,9.20
2005,03,13,08,32,9.20
2005,03,13,08,33,9.20
2005,03,13,08,34,9.20
2005,03,13,08,35,9.20
2005,03,13,08,36,9.20
2005,03,13,08,37,9.20
2005,03,13,08,38,9.20
2005,03,13,08,39,9.20
2005,03,13,08,40,9.20
2005,03,13,08,41,9.20
2005,03,13,08,42,9.20
2005,03,13,08,43,9.20
2005,03,13,08,44,9.30
2005,03,13,08,45,9.30
2005,03,13,08,46,9.30
2005,03,13,08,47,9.40
2005,03,13,08,48,9.40
2005,03,13,08,49,9.50
2005,03,13,08,50,9.50
2005,03,13,08,51,9.50
2005,03,13,08,52,9.50
2005,03,13,08,53,9.50
2005,03,13,08,54,9.60
2005,03,13,08,55,9.60
2005,03,13,08,56,9.70
2005,03,13,08,57,9.70
2005,03,13,08,58,9.70
2005,03,13,08,59,9.70
2005,03,13,09,00,9.80
2005,03,13,09,01,9.80
2005,03,13,09,02,9.90
2005,03,13,09,03,9.80
2005,03,13,09,04,9.80
2005,03,13,09,05,9.80
2005,03,13,09,06,9.90
2005,03,13,09,07,9.90
2005,03,13,09,08,9.90
2005,03,13,09,09,9.90
2005,03,13,09,10,9.90
2005,03,13,09,11,10.00
2005,03,13,09,12,10.10
2005,03,13,09,13,10.10
2005,03,13,09,14,10.10
2005,03,13,09,15,10.10
2005,03,13,09,16,10.10
2005,03,13,09,17,10.10
2005,03,13,09,18,10.10
2005,03,13,09,19,10.20
2005,03,13,09,20,10.20
2005,03,13,09,21,10.20
2005,03,13,09,22,10.30
2005,03,13,09,23,10.30
2005,03,13,09,24,10.40
2005,03,13,09,25,10.40
2005,03,13,09,26,10.50
2005,03,13,09,27,10.60
2005,03,13,09,28,10.60
2005,03,13,09,29,10.60
2005,03,13,09,30,10.60
2005,03,13,09,31,10.70
2005,03,13,09,32,10.70
2005,03,13,09,33,10.80
2005,03,13,09,34,10.90
2005,03,13,09,35,10.90
2005,03,13,09,36,10.90
2005,03,13,09,37,10.90
2005,03,13,09,38,10.90
2005,03,13,09,39,11.00
2005,03,13,09,40,11.10
2005,03,13,09,41,11.10
2005,03,13,09,42,11.10
2005,03,13,09,43,11.10
2005,03,13,09,44,11.10
2005,03,13,09,45,11.10
2005,03,13,09,46,11.20
2005,03,13,09,47,11.30
2005,03,13,09,48,11.40
2005,03,13,09,49,11.50
2005,03,13,09,50,11.60
2005,03,13,09,51,11.60
2005,03,13,09,52,11.60
2005,03,13,09,53,11.60
2005,03,13,09,54,11.60
2005,03,13,09,55,11.70
2005,03,13,09,56,11.70
2005,03,13,09,57,11.70
2005,03,13,09,58,11.70
2005,03,13,09,59,11.70
2005,03,13,10,00,11.70
2005,03,13,10,01,11.70
2005,03,13,10,02,11.70
2005,03,13,10,03,11.80
2005,03,13,10,04,11.80
2005,03,13,10,05,11.80
2005,03,13,10,06,11.80
2005,03,13,10,07,11.90
2005,03,13,10,08,11.90
2005,03,13,10,09,12.00
2005,03,13,10,10,12.00
2005,03,13,10,11,12.10
2005,03,13,10,12,12.10
2005,03,13,10,13,12.20
2005,03,13,10,14,12.20
2005,03,13,10,15,12.30
2005,03,13,10,16,12.30
2005,03,13,10,17,12.40
2005,03,13,10,18,12.40
2005,03,13,10,19,12.50
2005,03,13,10,20,12.40
2005,03,13,10,21,12.40
2005,03,13,10,22,12.40
2005,03,13,10,23,12.40
2005,03,13,10,24,12.40
2005,03,13,10,25,12.30
2005,03,13,10,26,12.30
2005,03,13,10,27,12.30
2005,03,13,10,28,12.30
2005,03,13,10,29,12.30
2005,03,13,10,30,12.30
2005,03,13,10,31,12.40
2005,03,13,10,32,12.30
2005,03,13,10,33,12.30
2005,03,13,10,34,12.30
2005,03,13,10,35,12.30
2005,03,13,10,36,12.30
2005,03,13,10,37,12.30
2005,03,13,10,38,12.40
2005,03,13,10,39,12.40
2005,03,13,10,40,12.40
2005,03,13,10,41,12.50
2005,03,13,10,42,12.50
2005,03,13,10,43,12.60
2005,03,13,10,44,12.60
2005,03,13,10,45,12.70
2005,03,13,10,46,12.70
2005,03,13,10,47,12.80
2005,03,13,10,48,12.80
2005,03,13,10,49,12.80
2005,03,13,10,50,12.80
2005,03,13,10,51,12.80
2005,03,13,10,52,12.80
2005,03,13,10,53,12.80
2005,03,13,10,54,12.80
2005,03,13,10,55,12.80
2005,03,13,10,56,12.80
2005,03,13,10,57,12.80
2005,03,13,10,58,12.80
2005,03,13,10,59,12.80
2005,03,13,11,00,12.80
2005,03,13,11,01,12.80
2005,03,13,11,02,12.80
2005,03,13,11,03,12.90
2005,03,13,11,04,12.90
2005,03,13,11,05,12.90
2005,03,13,11,06,12.80
2005,03,13,11,07,12.80
2005,03,13,11,08,12.80
2005,03,13,11,09,12.90
2005,03,13,11,10,13.00
2005,03,13,11,11,13.10
2005,03,13,11,12,13.20
2005,03,13,11,13,13.20
2005,03,13,11,14,13.30
2005,03,13,11,15,13.30
2005,03,13,11,16,13.30
2005,03,13,11,17,13.30
2005,03,13,11,18,13.30
2005,03,13,11,19,13.40
2005,03,13,11,20,13.40
2005,03,13,11,21,13.40
2005,03,13,11,22,13.50
2005,03,13,11,23,13.50
2005,03,13,11,24,13.50
2005,03,13,11,25,13.50
2005,03,13,11,26,13.50
2005,03,13,11,27,13.50
2005,03,13,11,28,13.40
2005,03,13,11,29,13.40
2005,03,13,11,30,13.40
2005,03,13,11,31,13.50
2005,03,13,11,32,13.60
2005,03,13,11,33,13.60
2005,03,13,11,34,13.60
2005,03,13,11,35,13.70
2005,03,13,11,36,13.70
2005,03,13,11,37,13.70
2005,03,13,11,38,13.60
2005,03,13,11,39,13.70
2005,03,13,11,40,13.70
2005,03,13,11,41,13.60
2005,03,13,11,42,13.70
2005,03,13,11,43,13.70
2005,03,13,11,44,13.70
2005,03,13,11,45,13.70
2005,03,13,11,46,13.80
2005,03,13,11,47,13.90
2005,03,13,11,48,13.90
2005,03,13,11,49,13.90
2005,03,13,11,50,13.80
2005,03,13,11,51,13.80
2005,03,13,11,52,13.70
2005,03,13,11,53,13.70
2005,03,13,11,54,13.70
2005,03,13,11,55,13.90
2005,03,13,11,56,14.00
2005,03,13,11,57,14.00
2005,03,13,11,58,14.20
2005,03,13,11,59,14.30
2005,03,13,12,00,14.30
2005,03,13,12,01,14.30
2005,03,13,12,02,14.20
2005,03,13,12,03,14.20
2005,03,13,12,04,14.10
2005,03,13,12,05,14.10
2005,03,13,12,06,14.10
2005,03,13,12,07,14.10
2005,03,13,12,08,14.10
2005,03,13,12,09,14.10
2005,03,13,12,10,14.10
2005,03,13,12,11,14.10
2005,03,13,12,12,14.10
2005,03,13,12,13,14.20
2005,03,13,12,14,14.20
2005,03,13,12,15,14.30
2005,03,13,12,16,14.40
2005,03,13,12,17,14.50
2005,03,13,12,18,14.50
2005,03,13,12,19,14.50
2005,03,13,12,20,14.50
2005,03,13,12,21,14.60
2005,03,13,12,22,14.50
2005,03,13,12,23,14.50
2005,03,13,12,24,14.50
2005,03,13,12,25,14.50
2005,03,13,12,26,14.60
2005,03,13,12,27,14.60
2005,03,13,12,28,14.60
2005,03,13,12,29,14.80
2005,03,13,12,30,14.90
2005,03,13,12,31,14.90
2005,03,13,12,32,14.90
2005,03,13,12,33,15.00
2005,03,13,12,34,15.00
2005,03,13,12,35,15.00
2005,03,13,12,36,15.10
2005,03,13,12,37,15.10
2005,03,13,12,38,15.10
2005,03,13,12,39,15.10
2005,03,13,12,40,15.20
2005,03,13,12,41,15.30
2005,03,13,12,42,15.30
2005,03,13,12,43,15.30
2005,03,13,12,44,15.20
2005,03,13,12,45,15.10
2005,03,13,12,46,15.00
2005,03,13,12,47,15.00
2005,03,13,12,48,15.00
2005,03,13,12,49,15.00
2005,03,13,12,50,15.00
2005,03,13,12,51,15.00
2005,03,13,12,52,14.90
2005,03,13,12,53,14.90
2005,03,13,12,54,14.80
2005,03,13,12,55,14.80
2005,03,13,12,56,14.90
2005,03,13,12,57,15.00
2005,03,13,12,58,15.00
2005,03,13,12,59,15.10
2005,03,13,13,00,15.10
2005,03,13,13,01,15.10
2005,03,13,13,02,15.10
2005,03,13,13,03,15.10
2005,03,13,13,04,15.20
2005,03,13,13,05,15.30
2005,03,13,13,06,15.30
2005,03,13,13,07,15.30
2005,03,13,13,08,15.20
2005,03,13,13,09,15.20
2005,03,13,13,10,15.20
2005,03,13,13,11,15.20
2005,03,13,13,12,15.20
2005,03,13,13,13,15.30
2005,03,13,13,14,15.30
2005,03,13,13,15,15.40
2005,03,13,13,16,15.50
2005,03,13,13,17,15.50
2005,03,13,13,18,15.50
2005,03,13,13,19,15.50
2005,03,13,13,20,15.40
2005,03,13,13,21,15.40
2005,03,13,13,22,15.40
2005,03,13,13,23,15.40
2005,03,13,13,24,15.40
2005,03,13,13,25,15.40
2005,03,13,13,26,15.40
2005,03,13,13,27,15.40
2005,03,13,13,28,15.40
2005,03,13,13,29,15.50
2005,03,13,13,30,15.60
2005,03,13,13,31,15.60
2005,03,13,13,32,15.60
2005,03,13,13,33,15.80
2005,03,13,13,34,15.80
2005,03,13,13,35,15.70
2005,03,13,13,36,15.70
2005,03,13,13,37,15.70
2005,03,13,13,38,15.60
2005,03,13,13,39,15.60
2005,03,13,13,40,15.60
2005,03,13,13,41,15.60
2005,03,13,13,42,15.60
2005,03,13,13,43,15.70
2005,03,13,13,44,15.80
2005,03,13,13,45,15.90
2005,03,13,13,46,15.90
2005,03,13,13,47,15.90
2005,03,13,13,48,15.90
2005,03,13,13,49,16.00
2005,03,13,13,50,16.00
2005,03,13,13,51,16.10
2005,03,13,13,52,16.10
2005,03,13,13,53,16.10
2005,03,13,13,54,16.10
2005,03,13,13,55,16.00
2005,03,13,13,56,16.10
2005,03,13,13,57,16.10
2005,03,13,13,58,16.10
2005,03,13,13,59,16.10
2005,03,13,14,00,16.20
2005,03,13,14,01,16.20
2005,03,13,14,02,16.20
2005,03,13,14,03,16.20
2005,03,13,14,04,16.20
2005,03,13,14,05,16.10
2005,03,13,14,06,16.10
2005,03,13,14,07,16.20
2005,03,13,14,08,16.20
2005,03,13,14,09,16.10
2005,03,13,14,10,16.10
2005,03,13,14,11,16.10
2005,03,13,14,12,16.20
2005,03,13,14,13,16.20
2005,03,13,14,14,16.20
2005,03,13,14,15,16.20
2005,03,13,14,16,16.20
2005,03,13,14,17,16.10
2005,03,13,14,18,16.20
2005,03,13,14,19,16.10
2005,03,13,14,20,16.20
2005,03,13,14,21,16.10
2005,03,13,14,22,16.20
2005,03,13,14,23,16.30
2005,03,13,14,24,16.40
2005,03,13,14,25,16.40
2005,03,13,14,26,16.40
2005,03,13,14,27,16.40
2005,03,13,14,28,16.40
2005,03,13,14,29,16.30
2005,03,13,14,30,16.30
2005,03,13,14,31,16.30
2005,03,13,14,32,16.20
2005,03,13,14,33,16.20
2005,03,13,14,34,16.30
2005,03,13,14,35,16.50
2005,03,13,14,36,16.80
2005,03,13,14,37,17.00
2005,03,13,14,38,17.00
2005,03,13,14,39,17.00
2005,03,13,14,40,17.00
2005,03,13,14,41,16.90
2005,03,13,14,42,16.90
2005,03,13,14,43,16.80
2005,03,13,14,44,16.80
2005,03,13,14,45,16.70
2005,03,13,14,46,16.80
2005,03,13,14,47,16.90
2005,03,13,14,48,16.80
2005,03,13,14,49,16.80
2005,03,13,14,50,16.70
2005,03,13,14,51,16.70
2005,03,13,14,52,16.70
2005,03,13,14,53,16.70
2005,03,13,14,54,16.70
2005,03,13,14,55,16.70
2005,03,13,14,56,16.70
2005,03,13,14,57,16.80
2005,03,13,14,58,16.90
2005,03,13,14,59,16.90
2005,03,13,15,00,17.00
2005,03,13,15,01,17.00
2005,03,13,15,02,17.10
2005,03,13,15,03,17.30
2005,03,13,15,04,17.40
2005,03,13,15,05,17.50
2005,03,13,15,06,17.50
2005,03,13,15,07,17.50
2005,03,13,15,08,17.50
2005,03,13,15,09,17.40
2005,03,13,15,10,17.30
2005,03,13,15,11,17.30
2005,03,13,15,12,17.30
2005,03,13,15,13,17.20
2005,03,13,15,14,17.20
2005,03,13,15,15,17.20
2005,03,13,15,16,17.30
2005,03,13,15,17,17.30
2005,03,13,15,18,17.30
2005,03,13,15,19,17.20
2005,03,13,15,20,17.20
2005,03,13,15,21,17.30
2005,03,13,15,22,17.30
2005,03,13,15,23,17.50
2005,03,13,15,24,17.70
2005,03,13,15,25,17.80
2005,03,13,15,26,17.90
2005,03,13,15,27,17.90
2005,03,13,15,28,17.90
2005,03,13,15,29,17.90
2005,03,13,15,30,17.90
2005,03,13,15,31,17.90
2005,03,13,15,32,17.80
2005,03,13,15,33,17.70
2005,03,13,15,34,17.70
2005,03,13,15,35,17.60
2005,03,13,15,36,17.50
2005,03,13,15,37,17.50
2005,03,13,15,38,17.50
2005,03,13,15,39,17.60
2005,03,13,15,40,17.70
2005,03,13,15,41,17.80
2005,03,13,15,42,17.90
2005,03,13,15,43,17.90
2005,03,13,15,44,17.90
2005,03,13,15,45,17.90
2005,03,13,15,46,17.80
2005,03,13,15,47,17.70
2005,03,13,15,48,17.70
2005,03,13,15,49,17.60
2005,03,13,15,50,17.60
2005,03,13,15,51,17.60
2005,03,13,15,52,17.50
2005,03,13,15,53,17.40
2005,03,13,15,54,17.40
2005,03,13,15,55,17.30
2005,03,13,15,56,17.30
2005,03,13,15,57,17.30
2005,03,13,15,58,17.30
2005,03,13,15,59,17.30
2005,03,13,16,00,17.30
2005,03,13,16,01,17.30
2005,03,13,16,02,17.30
2005,03,13,16,03,17.30
2005,03,13,16,04,17.30
2005,03,13,16,05,17.30
2005,03,13,16,06,17.30
2005,03,13,16,07,17.30
2005,03,13,16,08,17.40
2005,03,13,16,09,17.40
2005,03,13,16,10,17.40
2005,03,13,16,11,17.40
2005,03,13,16,12,17.40
2005,03,13,16,13,17.40
2005,03,13,16,14,17.40
2005,03,13,16,15,17.50
2005,03,13,16,16,17.50
2005,03,13,16,17,17.60
2005,03,13,16,18,17.60
2005,03,13,16,19,17.60
2005,03,13,16,20,17.60
2005,03,13,16,21,17.60
2005,03,13,16,22,17.70
2005,03,13,16,23,17.70
2005,03,13,16,24,17.60
2005,03,13,16,25,17.60
2005,03,13,16,26,17.60
2005,03,13,16,27,17.60
2005,03,13,16,28,17.60
2005,03,13,16,29,17.60
2005,03,13,16,30,17.60
2005,03,13,16,31,17.60
2005,03,13,16,32,17.60
2005,03,13,16,33,17.60
2005,03,13,16,34,17.60
2005,03,13,16,35,17.60
2005,03,13,16,36,17.60
2005,03,13,16,37,17.60
2005,03,13,16,38,17.50
2005,03,13,16,39,17.60
2005,03,13,16,40,17.60
2005,03,13,16,41,17.60
2005,03,13,16,42,17.60
2005,03,13,16,43,17.60
2005,03,13,16,44,17.60
2005,03,13,16,45,17.50
2005,03,13,16,46,17.50
2005,03,13,16,47,17.50
2005,03,13,16,48,17.50
2005,03,13,16,49,17.50
2005,03,13,16,50,17.50
2005,03,13,16,51,17.50
2005,03,13,16,52,17.50
2005,03,13,16,53,17.40
2005,03,13,16,54,17.50
2005,03,13,16,55,17.50
2005,03,13,16,56,17.50
2005,03,13,16,57,17.60
2005,03,13,16,58,17.60
2005,03,13,16,59,17.60
2005,03,13,17,00,17.60
2005,03,13,17,01,17.70
2005,03,13,17,02,17.70
2005,03,13,17,03,17.70
2005,03,13,17,04,17.70
2005,03,13,17,05,17.70
2005,03,13,17,06,17.70
2005,03,13,17,07,17.60
2005,03,13,17,08,17.60
2005,03,13,17,09,17.50
2005,03,13,17,10,17.50
2005,03,13,17,11,17.50
2005,03,13,17,12,17.70
2005,03,13,17,13,17.80
2005,03,13,17,14,17.80
2005,03,13,17,15,17.90
2005,03,13,17,16,17.90
2005,03,13,17,17,17.90
2005,03,13,17,18,17.90
2005,03,13,17,19,18.10
2005,03,13,17,20,18.10
2005,03,13,17,21,18.20
2005,03,13,17,22,18.20
2005,03,13,17,23,18.20
2005,03,13,17,24,18.30
2005,03,13,17,25,18.30
2005,03,13,17,26,18.30
2005,03,13,17,27,18.20
2005,03,13,17,28,18.10
2005,03,13,17,29,18.10
2005,03,13,17,30,18.00
2005,03,13,17,31,17.90
2005,03,13,17,32,17.90
2005,03,13,17,33,17.90
2005,03,13,17,34,17.90
2005,03,13,17,35,17.80
2005,03,13,17,36,17.80
2005,03,13,17,37,17.70
2005,03,13,17,38,17.70
2005,03,13,17,39,17.80
2005,03,13,17,40,17.80
2005,03,13,17,41,17.80
2005,03,13,17,42,17.90
2005,03,13,17,43,17.90